Wind_Speed
44 43 46 49 48 48 48 43 33 27 25 24 26 29 30 28 27 29 30 28 28 28 30 33 32 35 38 39 37 35 36 36 36 36 34 32 32 32 31 31 31 30 29 24 23 24 24 25 25 26 27 27 28 29 30 30 31 30 29 29 29 27 28 28 28 26 25 23 22 22 21 21 22 24 25 25 25 25 25 26 28 29 29 28 27 26
38 43 49 50 43 39 40 39 34 31 28 27 27 27 27 25 23 26 28 28 29 29 31 33 34 36 39 41 38 37 37 37 36 35 35 34 33 33 32 31 31 30 28 26 25 25 25 26 27 28 28 28 28 27 28 29 30 31 31 30 29 29 30 30 29 28 27 25 24 24 23 23 24 25 26 26 26 26 26 27 29 30 30 30 29 28
29 39 44 43 39 34 33 38 37 32 27 24 23 21 21 21 20 23 26 28 27 27 29 32 34 38 41 42 42 41 41 38 35 35 35 35 35 34 32 32 32 31 29 27 27 27 26 27 28 28 28 28 28 28 27 28 29 29 30 29 29 29 30 30 30 29 28 27 27 26 26 26 26 26 26 27 29 29 29 29 30 31 32 32 31 30
28 34 40 39 39 35 33 36 36 31 28 26 23 20 19 22 21 18 20 23 25 24 25 27 32 39 42 44 46 44 42 40 36 36 36 35 35 34 33 33 33 32 31 30 29 29 28 28 29 29 28 28 28 28 28 27 28 28 29 28 28 29 29 30 31 30 30 30 30 30 29 29 29 28 29 30 30 30 30 30 30 31 32 32 32 32
33 27 30 32 33 33 33 33 34 32 31 30 28 24 22 24 24 19 14 14 18 21 24 23 27 39 45 46 49 46 45 44 40 39 38 37 36 34 34 34 34 33 33 33 32 31 30 29 29 30 29 29 29 28 27 26 26 27 27 28 28 29 29 30 31 31 32 33 33 33 33 32 31 30 31 31 29 28 29 29 29 30 31 32 32 32
44 33 27 25 24 26 30 33 35 34 32 31 33 31 26 23 22 22 19 15 14 18 23 20 18 26 35 41 46 45 44 44 41 41 41 39 38 36 35 34 33 33 33 33 32 32 33 30 29 29 30 29 29 29 28 27 26 26 26 27 28 29 30 30 31 32 34 35 35 36 35 34 33 32 32 30 28 28 28 28 29 30 31 31 32 32
48 48 43 34 27 24 25 31 36 35 32 31 34 33 29 27 24 24 23 18 16 17 20 19 15 18 25 36 45 44 43 44 41 40 40 39 38 37 36 34 32 32 32 32 32 32 33 32 30 29 29 30 30 30 30 30 29 27 26 26 27 28 29 30 31 32 35 37 37 38 37 35 35 34 32 30 29 29 30 30 30 31 31 32 32 33
44 48 50 46 40 35 27 26 32 35 33 32 35 32 30 32 30 26 24 20 20 21 22 24 23 23 29 40 49 48 46 47 44 42 40 38 37 36 35 34 33 32 32 33 33 33 32 33 32 30 30 31 31 31 32 32 31 29 28 28 29 30 30 30 30 32 34 37 38 38 38 37 37 36 34 32 32 31 31 32 32 32 32 33 33 33
42 44 47 44 42 41 35 26 24 28 31 31 31 29 31 34 33 32 28 26 27 25 25 29 25 21 25 34 43 47 48 48 47 45 42 39 37 36 34 33 32 31 31 32 32 32 31 32 33 32 31 31 31 32 33 33 32 31 31 31 32 32 32 32 31 32 33 35 38 39 39 39 38 37 35 35 34 34 34 34 33 33 33 33 33 34
37 38 38 37 38 39 40 33 24 22 24 26 23 21 25 28 29 30 26 28 29 23 28 35 27 18 19 24 32 42 45 45 44 42 39 37 35 34 32 30 30 31 31 31 31 30 29 30 32 34 34 33 32 33 33 34 35 36 36 36 35 34 33 33 32 32 32 33 36 38 40 40 39 38 37 37 36 36 37 36 35 35 34 33 33 33
31 26 25 29 34 33 34 34 33 31 26 23 19 17 21 24 26 26 24 27 21 17 34 42 31 22 17 14 18 31 41 41 39 38 35 32 29 27 25 23 24 26 29 31 30 29 28 29 30 31 33 33 33 35 35 35 37 38 39 38 37 34 33 34 33 33 32 33 34 36 38 39 39 39 39 39 38 38 38 38 37 36 35 35 34 34
27 21 22 26 28 27 27 30 35 40 39 33 25 20 18 18 22 21 22 26 13 10 33 41 31 24 19 16 12 21 38 37 32 33 31 28 25 23 22 21 20 21 24 27 28 27 27 27 27 27 29 31 32 34 33 34 36 37 38 38 38 36 34 35 35 34 33 32 33 34 36 39 39 40 40 40 40 40 39 39 39 39 38 37 37 36
27 25 24 24 25 26 27 29 29 32 37 35 29 25 17 11 13 12 12 14 10 14 26 27 21 21 29 39 34 35 46 41 34 33 29 27 25 22 19 19 20 21 21 23 24 24 24 25 25 26 29 31 31 31 32 33 35 36 37 37 38 37 36 36 37 37 36 34 33 33 34 37 38 40 41 41 41 42 41 40 40 41 40 39 39 38
24 24 26 25 25 28 29 31 31 31 36 37 36 34 22 7 4 8 7 4 7 18 23 18 15 13 24 43 43 38 38 34 31 29 24 23 22 20 19 17 18 20 20 20 21 23 23 23 25 27 29 30 30 30 32 34 36 37 38 38 37 37 37 39 39 39 39 38 36 34 34 35 36 39 41 42 42 42 42 42 42 42 41 41 40 40
20 16 26 30 27 29 31 31 30 33 37 38 37 35 27 16 7 3 4 2 5 12 15 15 12 7 17 32 29 23 24 24 24 23 21 22 20 18 18 16 17 17 15 15 17 20 22 22 24 25 26 27 26 25 25 25 27 31 34 36 36 35 35 39 41 42 41 41 40 39 36 35 36 38 39 41 42 42 42 43 43 43 43 42 42 41
23 13 20 29 28 25 24 26 27 27 29 28 27 29 32 33 22 5 3 4 3 4 8 13 12 12 28 41 36 30 31 30 28 25 23 20 16 14 12 12 14 13 11 11 12 15 18 22 26 26 25 25 25 24 22 21 21 23 25 28 30 30 31 35 39 42 43 43 43 42 40 37 37 38 39 39 40 42 43 44 45 45 44 45 44 44
24 14 14 23 28 26 20 19 24 26 23 22 26 31 34 37 30 15 8 8 6 5 5 10 12 19 31 39 39 37 34 32 28 24 21 17 13 11 10 13 14 12 12 11 9 10 12 17 22 26 27 28 29 29 28 28 28 28 28 29 31 32 33 34 36 39 42 43 43 43 42 39 37 37 37 38 38 40 43 45 46 46 46 47 47 47
25 16 16 21 25 27 22 16 20 26 23 21 27 31 29 26 27 22 10 6 5 5 6 10 16 19 20 24 30 28 25 27 25 19 17 15 13 14 15 16 16 11 10 8 6 7 9 12 16 21 25 27 29 31 31 32 33 32 30 30 32 32 33 33 34 36 38 40 41 41 40 38 36 35 36 36 37 39 41 44 45 46 47 47 48 49
26 16 15 23 23 22 22 20 23 29 29 26 24 26 23 17 18 22 15 6 7 6 5 11 18 21 25 34 38 31 26 29 28 21 18 18 20 25 27 25 20 13 9 8 8 11 11 13 15 17 20 22 24 27 28 28 29 28 27 27 27 27 28 30 31 31 32 33 35 35 35 34 34 34 34 35 37 39 41 42 44 46 48 48 49 50
27 18 11 20 24 20 22 28 31 33 33 32 26 24 26 21 15 22 24 14 8 6 6 9 11 16 33 47 44 36 32 33 32 28 27 28 32 34 32 30 26 19 15 15 17 18 17 18 18 18 19 20 21 24 25 25 25 25 25 25 25 23 23 25 26 26 27 28 31 32 33 34 34 35 35 35 36 38 41 42 43 45 47 49 50 51
27 22 12 13 20 23 25 30 34 35 35 37 34 29 31 30 19 16 23 23 14 5 4 7 7 16 37 45 39 35 35 35 34 33 34 34 35 35 32 29 26 24 24 22 23 24 23 22 20 18 19 21 22 23 24 24 24 24 24 24 24 24 22 22 23 25 26 28 29 30 32 33 34 35 36 37 38 39 41 42 43 44 46 49 51 51
26 25 19 15 19 25 28 31 33 34 34 36 40 38 35 35 27 13 12 24 27 17 9 6 6 22 43 44 38 38 35 35 35 33 34 34 32 32 29 24 21 23 26 26 27 27 26 23 19 18 19 21 22 23 23 23 22 21 21 22 24 26 26 27 27 28 29 30 30 30 30 31 32 33 35 37 38 39 40 40 41 43 44 46 48 50
29 24 21 18 20 22 24 28 30 30 32 34 37 39 36 34 32 22 11 16 25 25 20 12 8 27 46 42 38 39 35 35 35 32 33 33 31 29 25 21 19 20 23 25 26 27 25 22 19 18 19 20 20 19 18 20 20 20 22 25 27 29 29 29 30 30 31 32 32 31 31 31 31 32 34 36 37 37 37 38 38 40 41 42 44 47
32 25 22 18 19 22 24 27 29 27 29 33 35 39 39 37 38 35 26 19 17 20 22 12 8 30 46 38 33 37 36 36 37 35 34 33 30 28 26 26 25 23 24 24 25 26 24 22 21 20 19 19 17 14 14 16 18 22 25 27 27 27 26 26 27 27 29 30 30 31 31 31 31 31 32 33 35 36 36 36 36 37 38 38 40 43
33 28 26 19 11 15 20 19 21 25 30 33 36 37 39 41 41 38 36 29 18 19 25 14 10 31 46 37 32 35 36 38 38 36 34 31 31 31 31 31 31 28 28 28 28 30 28 27 27 23 19 18 16 15 17 19 22 24 25 25 25 24 23 23 23 22 23 24 25 26 27 27 28 29 29 30 31 33 34 35 35 35 36 36 37 39
34 32 32 24 11 9 13 15 20 26 30 33 36 36 37 40 40 38 37 30 18 19 28 22 20 37 48 42 38 38 37 37 38 38 37 35 35 36 36 36 36 35 34 34 34 34 33 32 30 27 22 19 18 19 21 22 25 26 23 22 22 21 20 20 20 20 20 20 20 21 22 23 24 26 27 27 28 29 31 33 34 35 35 35 37 39
33 35 36 33 26 21 25 31 32 30 27 29 33 35 36 37 38 39 37 33 29 29 31 32 34 43 49 44 41 41 39 37 40 42 44 43 42 41 41 41 41 40 39 38 37 37 37 33 31 30 27 23 21 21 22 23 25 26 24 20 19 18 19 19 19 19 19 18 18 19 19 20 22 23 25 26 28 29 30 31 32 34 35 35 37 39
30 32 34 35 35 35 37 37 34 29 26 27 29 31 33 33 35 38 38 38 40 33 27 32 37 40 47 49 45 44 43 41 44 46 48 49 47 46 45 45 44 43 43 44 43 41 39 34 31 31 30 28 26 25 25 24 23 25 24 20 17 18 19 20 20 20 20 21 22 23 23 23 23 24 25 26 28 29 30 31 32 34 35 36 37 38
30 31 34 35 35 38 40 37 34 32 29 29 29 30 31 32 32 36 37 39 41 35 32 38 40 40 47 53 51 48 46 45 46 47 49 51 50 48 48 48 48 48 49 51 50 47 42 37 34 32 32 32 30 29 28 27 24 24 24 21 18 19 20 22 23 22 23 25 27 28 28 28 28 27 27 28 29 29 30 32 33 35 36 36 37 37
29 31 34 34 34 38 39 38 36 35 34 34 35 33 31 29 29 31 33 35 38 39 41 43 45 47 49 50 52 51 48 49 50 49 50 52 53 54 53 54 55 55 55 56 56 52 47 42 38 36 35 35 32 30 30 29 26 25 23 21 20 22 24 26 26 25 26 28 29 30 31 32 32 31 30 30 30 31 32 32 34 35 36 37 37 37
29 30 30 29 30 34 37 37 36 36 36 36 36 36 33 30 29 31 34 36 38 40 42 42 44 48 49 48 52 53 50 51 52 52 53 54 57 59 58 58 58 58 57 58 57 54 50 47 42 39 37 36 34 32 31 30 28 27 25 22 22 24 27 29 29 29 29 30 31 33 35 36 37 35 32 31 32 32 33 33 34 35 36 37 38 38
30 30 28 26 25 30 35 35 34 35 34 33 35 36 35 36 38 40 42 44 44 43 42 41 43 47 47 47 50 54 55 56 56 57 58 58 58 60 61 61 60 59 58 57 57 53 48 45 42 39 38 37 35 34 32 31 30 30 28 24 23 25 29 31 33 32 32 33 34 36 37 38 40 39 36 34 33 34 34 35 35 35 36 37 38 39
29 28 29 26 21 27 34 32 31 30 23 23 33 38 39 43 45 45 46 47 46 46 44 44 47 50 48 47 48 51 56 59 59 59 59 57 57 58 61 62 61 60 59 58 59 55 45 39 36 36 38 37 36 35 34 33 33 32 32 29 26 27 30 34 36 36 36 36 37 39 39 39 41 43 41 38 35 35 36 36 36 36 36 37 38 39
25 26 30 26 19 23 30 26 22 18 13 21 35 39 39 41 41 42 45 45 45 46 48 49 51 51 49 49 50 52 55 58 58 58 56 55 55 56 59 61 62 63 62 62 63 61 51 42 36 36 37 37 37 37 36 36 35 35 35 34 31 31 34 36 38 39 39 38 39 41 41 41 41 41 43 43 40 37 37 38 38 37 36 36 37 39
24 25 27 25 20 22 26 19 9 10 21 34 40 38 37 38 39 42 45 46 46 47 48 49 49 49 49 50 51 53 56 58 58 59 58 56 56 56 58 61 63 63 64 63 64 63 58 51 45 43 42 41 39 39 39 39 39 38 38 39 39 38 38 39 40 39 39 39 40 42 43 42 40 37 38 42 43 41 38 38 39 38 37 36 36 37
24 24 24 24 22 20 19 13 8 14 30 40 38 38 40 39 40 42 44 48 48 46 45 46 46 47 48 49 51 53 56 57 58 60 61 59 56 56 57 59 60 60 60 60 60 59 55 50 48 48 49 48 45 42 42 43 42 41 40 41 45 47 45 44 44 43 42 41 41 42 42 42 40 37 36 38 43 45 40 37 39 40 38 37 36 36
25 24 24 23 21 19 18 17 15 17 29 39 42 42 43 42 42 40 39 46 48 44 43 44 45 48 49 50 51 51 50 51 52 57 61 59 54 52 52 52 53 54 55 55 55 54 49 43 42 44 47 50 49 47 47 46 44 43 40 40 46 53 55 54 53 52 50 48 46 45 44 43 41 40 39 38 41 45 42 38 38 40 40 39 38 36
26 26 25 22 20 20 19 18 14 9 20 42 51 48 43 41 41 38 36 42 47 47 47 49 50 50 50 48 48 45 44 47 50 53 58 58 51 47 48 48 48 50 51 51 51 49 45 41 40 40 42 45 46 45 46 47 45 43 40 39 43 51 58 60 60 59 57 56 53 51 50 50 48 47 47 43 40 41 42 39 38 39 39 39 38 37
28 27 27 25 22 22 19 17 13 12 25 47 53 46 42 40 37 32 28 34 45 49 49 49 49 48 48 46 45 43 43 49 51 50 53 54 49 46 48 49 48 48 49 49 49 48 46 44 43 42 41 41 41 41 43 44 44 43 41 39 42 48 54 60 62 61 60 60 59 57 57 58 57 55 54 51 44 41 42 40 38 38 38 38 39 38
32 31 30 30 30 29 26 22 20 22 35 49 48 43 43 41 31 18 16 28 45 48 46 45 43 41 41 40 39 40 43 47 48 46 49 51 48 46 49 50 48 48 48 47 47 47 48 46 44 43 41 40 39 40 42 43 42 42 42 41 42 45 50 56 59 60 60 61 62 62 62 62 62 60 59 57 52 48 45 41 39 39 38 39 40 40
31 33 34 36 37 35 31 27 25 31 41 47 44 43 45 39 26 18 22 35 46 47 47 46 40 34 32 31 33 36 38 40 42 44 47 49 47 47 50 50 48 47 45 44 43 43 43 43 41 40 40 40 41 42 42 42 42 42 42 42 44 46 50 53 56 58 59 60 61 62 64 64 64 63 62 59 57 54 50 44 41 40 40 41 42 42
28 30 32 36 38 38 37 32 27 33 44 46 42 44 45 37 31 31 35 39 40 43 48 48 42 36 34 34 35 35 36 38 42 44 46 46 46 47 48 47 42 38 35 35 36 36 37 37 37 38 39 40 41 41 41 41 41 41 42 42 44 46 48 50 52 55 57 58 59 60 61 62 62 62 60 59 57 55 51 46 43 41 41 43 44 45
30 26 29 36 38 35 35 29 20 27 41 42 39 43 44 38 35 36 36 32 31 37 43 43 41 40 39 38 38 39 40 40 42 43 41 40 42 43 42 40 36 31 28 28 29 32 33 33 33 35 36 36 37 37 38 39 40 40 40 41 41 41 43 44 46 49 53 56 57 57 56 57 58 58 57 57 56 55 52 48 45 43 43 45 47 47
31 30 32 37 37 33 33 31 26 31 38 35 33 38 39 35 31 27 24 23 24 28 34 38 39 37 36 37 36 37 39 39 39 36 31 30 33 36 34 32 31 29 26 24 26 28 30 30 30 31 32 32 33 34 35 36 38 39 39 39 39 39 39 39 40 43 46 50 52 53 52 52 52 53 54 54 55 55 53 50 47 44 44 46 49 49
35 38 36 38 37 34 34 34 34 35 34 33 35 35 30 24 21 18 17 19 22 25 28 32 32 28 25 27 27 27 29 31 31 30 26 26 29 32 33 30 28 27 26 25 25 26 27 29 30 30 31 32 33 33 33 34 36 37 38 39 39 40 40 39 38 39 42 45 47 48 48 48 48 49 50 51 52 52 52 51 49 47 46 48 50 51
37 36 33 35 36 35 35 37 36 35 36 37 36 33 27 21 20 22 23 25 28 29 24 21 21 19 16 18 21 20 20 22 24 24 24 24 25 27 29 28 26 27 27 26 26 26 26 27 28 29 31 32 33 34 35 35 36 38 38 38 39 40 41 41 40 39 40 42 44 46 46 47 47 46 46 47 48 49 50 51 50 49 49 49 50 52
36 34 32 33 33 33 36 41 40 39 39 38 37 36 35 32 30 31 31 32 33 29 19 14 14 14 13 15 18 19 19 19 21 22 21 21 21 22 24 25 24 25 25 26 26 26 25 27 29 30 31 32 32 33 34 35 37 39 40 40 40 41 42 42 43 42 41 41 42 44 46 47 47 46 44 44 45 47 49 50 51 51 51 50 51 53
36 35 34 35 36 38 41 43 38 33 32 32 32 33 33 33 35 37 37 36 34 26 16 12 12 12 12 14 16 19 20 19 20 21 21 21 21 21 21 22 22 22 22 23 24 24 24 26 28 30 32 33 33 33 33 34 35 38 41 42 42 42 42 43 44 44 43 42 41 42 44 45 47 47 46 44 43 45 48 50 52 52 52 53 54 55
36 36 37 38 40 42 43 42 36 30 26 23 21 21 22 24 28 31 31 30 28 23 18 16 16 16 17 17 18 21 22 20 20 22 22 21 21 21 20 20 21 21 21 20 21 21 22 24 25 26 27 28 30 31 32 33 34 36 39 41 43 43 43 43 44 44 44 43 41 42 43 44 46 47 47 46 45 44 46 50 54 54 55 56 57 58
40 41 41 39 39 41 42 40 36 33 32 29 26 26 25 25 26 27 25 22 22 22 22 22 22 22 22 22 23 25 25 23 23 24 24 23 22 22 22 22 21 21 20 20 19 20 20 20 21 22 21 22 23 25 28 30 32 35 38 40 42 43 43 42 43 44 43 41 40 40 42 44 45 47 48 48 47 45 44 47 52 56 58 58 59 59
43 44 42 39 39 40 40 38 34 32 32 31 29 29 29 29 29 29 29 27 27 28 28 28 28 27 27 28 28 28 29 28 26 27 27 26 25 25 25 25 24 23 22 22 22 22 21 21 21 21 21 21 21 22 24 25 27 31 34 38 41 43 43 42 41 42 42 41 39 38 40 42 43 46 48 49 49 48 45 44 47 53 58 60 60 59
Wind_Direction
204 208 210 213 216 217 221 220 217 224 227 223 229 233 233 234 236 240 241 241 242 244 249 251 255 258 255 254 255 256 258 260 260 260 257 255 256 258 257 257 257 258 259 258 257 256 259 264 268 271 273 271 268 264 261 260 259 258 259 260 261 261 259 258 257 257 255 254 255 254 252 251 249 248 247 246 245 244 242 241 240 241 244 246 247 249
202 208 213 216 217 218 221 220 219 224 228 229 233 234 234 235 236 243 245 245 246 247 252 255 257 259 257 255 256 256 256 257 257 260 260 258 259 261 260 258 258 259 258 256 254 254 257 260 264 267 269 270 269 268 266 263 261 259 258 258 259 258 258 258 257 257 256 254 254 253 252 250 248 247 247 246 245 244 242 240 240 241 243 245 246 247
200 207 211 216 216 215 217 219 221 224 226 226 227 229 231 233 234 242 248 251 252 254 256 259 261 262 259 257 257 256 256 257 257 259 261 262 263 262 261 261 262 260 258 255 255 258 259 260 264 264 265 267 268 268 265 263 262 260 259 258 256 256 258 259 258 257 257 256 254 252 251 249 246 244 243 242 241 240 240 239 239 241 243 244 246 248
202 206 206 211 215 215 218 220 221 224 227 226 225 224 228 235 236 241 251 253 253 256 260 263 266 264 260 257 256 257 259 260 259 260 260 262 264 263 262 264 264 261 258 258 259 261 261 262 265 264 263 265 265 265 265 265 264 263 262 260 256 255 255 256 256 257 257 256 254 251 249 248 246 244 242 240 239 239 240 241 242 244 245 247 249 251
215 209 204 209 214 217 220 220 221 223 227 231 230 227 230 238 239 238 241 241 246 253 257 265 275 270 265 262 259 259 262 262 261 261 260 260 261 262 262 262 263 262 261 262 263 263 262 263 265 265 264 264 264 266 268 269 268 265 263 261 258 254 252 252 253 253 253 254 254 252 249 247 247 247 246 246 245 246 247 247 249 250 250 251 252 253
223 223 216 212 212 215 219 222 223 224 227 232 235 233 233 239 241 237 233 234 250 259 258 264 280 276 269 267 264 261 262 263 261 260 260 260 261 260 260 261 262 263 264 266 267 267 265 263 262 261 261 262 266 267 269 268 266 263 261 260 258 255 253 251 250 249 250 251 252 253 252 250 249 249 249 250 252 252 252 251 252 252 252 252 253 253
225 229 232 229 228 226 224 225 225 225 225 230 238 239 236 238 240 239 237 238 249 257 262 261 263 274 274 268 266 264 263 264 262 261 260 260 262 261 261 261 262 262 264 267 269 269 269 264 259 257 257 259 262 264 265 265 262 261 261 261 260 259 258 256 251 248 248 249 251 252 253 253 251 251 250 251 251 252 252 251 250 249 249 250 250 251
224 229 235 237 240 241 234 223 224 225 225 229 238 240 240 240 239 240 240 240 247 255 263 261 258 268 273 268 267 265 264 267 266 264 264 263 263 263 263 263 263 263 264 267 268 269 270 266 258 254 253 255 258 260 262 263 264 264 265 265 265 263 262 262 258 253 250 249 250 251 253 253 253 252 252 251 250 250 250 250 249 249 248 248 248 249
225 226 230 233 234 238 236 223 213 216 220 229 239 243 245 245 242 241 242 246 252 257 259 255 250 259 267 266 269 268 266 267 269 268 268 268 266 265 265 265 264 264 263 265 268 268 269 267 259 253 252 253 256 258 260 263 265 266 267 269 270 268 266 265 264 262 258 254 251 250 251 253 253 253 252 251 250 249 249 249 250 250 250 250 249 250
225 226 230 231 230 236 238 231 216 210 215 223 233 244 247 244 238 237 239 244 247 247 251 249 238 243 268 265 263 268 266 265 269 271 271 272 272 270 269 268 266 263 261 262 265 268 269 267 261 254 252 254 257 259 260 263 265 266 269 271 271 271 269 267 266 265 264 261 257 253 252 252 254 254 253 252 251 250 250 250 250 251 251 252 251 252
222 223 222 227 230 235 238 233 229 231 233 233 235 242 243 235 229 229 231 235 236 237 246 247 235 234 267 266 246 259 263 264 268 273 275 277 278 274 268 263 262 261 258 258 261 266 268 265 261 257 257 258 261 261 262 263 266 268 269 270 269 268 267 265 263 263 264 266 264 262 258 255 254 253 252 252 252 252 252 251 251 251 251 251 251 251
219 215 213 219 225 226 226 225 230 237 239 243 243 236 231 220 215 218 219 221 220 235 245 246 237 227 244 249 231 256 265 266 270 274 280 281 279 275 263 253 258 263 261 259 261 266 267 263 264 265 263 261 261 262 264 265 266 267 268 268 266 265 264 263 261 261 263 267 269 268 264 259 256 253 253 252 252 251 252 252 252 251 251 250 250 250
214 215 217 218 216 213 213 213 218 229 235 239 237 229 221 198 196 202 199 206 209 229 242 245 231 221 244 256 258 265 270 273 275 276 281 281 279 278 269 260 260 264 265 262 260 262 265 264 266 267 265 262 261 262 264 265 266 268 269 268 267 265 263 261 261 260 262 266 270 271 268 264 260 256 255 254 253 252 252 252 252 252 252 251 251 251
203 213 214 210 204 203 205 206 207 218 226 227 225 221 215 196 193 203 195 189 208 227 239 238 218 218 255 265 266 266 269 273 272 273 279 283 285 283 277 270 264 264 267 267 261 256 258 256 255 258 261 263 265 266 266 267 268 269 269 270 270 269 266 263 262 262 263 265 268 270 270 267 262 259 257 256 255 255 254 253 253 253 253 253 252 252
187 200 212 210 203 199 205 213 220 228 228 227 227 222 217 222 237 210 204 197 187 220 228 212 197 197 243 256 263 265 270 270 265 270 280 284 285 281 273 270 274 273 270 271 265 254 250 245 244 251 259 264 266 268 270 272 271 269 267 267 269 271 269 265 262 262 263 264 265 267 269 269 263 259 258 257 256 256 255 254 254 254 254 255 254 253
195 202 215 213 211 210 214 218 221 226 229 229 227 222 222 230 235 246 314 284 236 240 217 195 196 224 243 253 259 264 270 272 270 273 277 278 272 264 269 288 294 279 262 266 267 259 253 249 249 254 261 264 263 264 267 270 271 269 267 267 269 271 271 267 263 261 262 263 264 265 267 267 263 257 257 258 257 256 255 255 255 254 254 254 254 253
198 207 214 205 209 219 226 224 215 212 218 217 210 214 225 233 234 240 282 289 275 286 241 200 216 241 254 263 263 260 265 271 273 270 268 267 259 259 291 319 313 280 259 261 262 268 270 263 261 261 262 265 265 266 270 273 275 275 275 275 273 274 273 270 267 264 262 261 262 264 264 264 260 256 256 259 259 258 255 254 255 255 254 253 253 253
196 199 211 204 208 217 218 226 225 216 215 209 207 219 227 229 231 233 252 280 245 260 250 220 231 245 254 265 265 260 262 273 276 265 256 258 264 280 294 309 317 293 256 244 253 292 298 287 280 271 267 268 270 274 277 280 281 282 283 281 278 278 275 270 267 265 263 261 261 262 262 261 258 257 257 258 259 257 255 254 254 255 255 253 252 251
200 194 213 214 217 219 208 210 218 214 216 215 217 223 216 209 218 214 213 238 230 236 261 237 237 244 248 255 263 266 266 275 278 264 258 268 279 288 288 291 301 293 254 248 283 306 311 309 303 289 279 276 276 278 279 281 284 284 284 284 283 282 276 267 264 264 263 260 260 260 259 258 257 257 257 256 257 256 255 254 254 254 255 254 253 251
208 204 213 214 218 218 204 204 209 210 212 213 219 223 215 214 214 203 205 214 222 226 249 245 231 240 253 258 263 267 268 273 276 273 274 280 283 287 288 289 290 282 268 271 285 295 304 311 309 299 290 283 278 277 277 281 286 286 285 282 280 277 271 266 265 266 266 263 261 259 257 256 256 256 256 255 255 255 255 255 255 256 256 255 253 251
212 212 214 208 210 211 207 208 213 214 209 208 213 215 213 215 212 211 215 213 217 227 234 248 238 245 258 264 267 270 273 273 275 277 279 281 283 286 290 291 285 273 268 272 279 285 293 303 306 301 295 288 281 277 277 281 287 288 286 277 271 269 270 274 277 275 273 270 266 264 261 259 257 256 256 255 255 256 256 257 257 258 258 256 253 251
212 214 215 207 200 205 214 219 222 221 216 214 215 213 214 212 204 205 217 212 216 221 216 235 262 257 260 266 270 272 274 275 276 278 278 279 283 286 290 292 284 271 267 269 273 277 284 294 302 304 300 291 283 281 280 281 285 289 286 277 272 274 277 281 282 279 275 272 269 268 266 264 261 259 259 259 259 259 260 261 262 261 260 257 254 251
213 211 212 214 211 213 222 226 226 225 224 224 223 221 222 217 209 209 212 208 213 219 228 243 271 265 263 266 270 271 272 273 274 275 276 278 280 283 287 289 287 281 276 274 274 277 281 288 296 305 305 293 285 287 287 284 286 288 285 281 280 283 285 284 281 276 273 271 269 268 268 267 265 264 262 262 262 263 264 266 265 264 261 257 254 251
212 210 208 212 220 221 222 226 228 228 226 226 227 227 226 224 223 223 223 223 218 216 227 236 251 262 265 267 267 268 269 269 271 272 274 277 278 279 282 285 287 286 283 282 283 283 283 285 290 300 306 297 285 284 288 290 292 287 281 281 284 288 291 289 283 278 274 271 270 269 269 269 269 267 266 265 265 265 266 266 266 264 261 257 254 253
211 210 209 207 213 220 220 224 225 223 223 224 228 230 229 229 230 229 229 234 236 223 224 225 233 253 262 267 264 266 268 269 273 274 274 275 276 278 282 286 287 284 281 282 285 287 288 290 292 295 300 299 287 279 285 295 301 295 284 280 284 290 293 288 283 280 275 272 270 270 270 271 271 270 270 269 267 265 265 264 264 263 261 258 255 254
213 212 213 210 200 198 209 217 220 220 220 222 227 231 232 232 231 230 231 234 238 234 229 230 239 252 262 267 264 266 270 272 276 278 277 276 277 279 282 283 284 281 279 281 285 289 292 294 294 293 292 293 287 282 286 293 301 300 289 279 281 288 287 281 279 279 276 273 271 271 273 273 272 272 272 270 269 266 264 264 263 263 262 260 258 256
216 216 218 218 216 215 219 222 224 225 222 223 229 231 232 235 234 232 230 229 234 239 236 235 241 253 263 266 264 265 269 273 277 279 280 281 280 280 280 280 281 280 280 283 287 292 294 295 296 292 287 286 280 276 280 285 292 296 288 276 275 279 276 272 274 274 273 272 273 276 280 280 278 276 274 272 271 269 268 267 266 266 265 264 263 261
219 220 221 224 227 229 232 233 232 234 234 234 238 238 237 239 237 232 230 232 237 239 241 242 242 248 259 265 266 267 270 273 275 277 279 280 279 280 280 279 279 280 284 286 288 292 295 297 297 289 282 282 276 268 270 274 279 285 284 273 265 266 263 261 265 268 271 275 281 284 285 285 284 281 278 276 274 273 272 271 270 269 269 267 266 266
222 227 229 231 235 238 240 242 240 240 243 244 246 249 249 249 248 243 241 242 243 242 244 249 249 248 255 263 267 268 271 273 272 273 275 276 277 280 282 282 281 282 287 288 288 292 294 295 296 289 282 283 280 271 267 268 268 274 276 268 257 252 251 253 259 266 273 279 284 286 286 285 285 283 281 278 275 274 273 272 271 270 270 269 268 268
221 229 234 236 241 244 244 246 246 245 247 247 247 249 249 249 252 253 255 256 253 252 252 252 254 254 255 261 265 264 267 271 271 270 271 273 277 280 281 282 283 286 289 289 289 291 292 291 294 292 287 286 284 276 270 268 267 267 264 260 255 247 243 247 254 263 272 279 284 285 285 285 285 284 283 279 276 274 273 272 272 270 270 269 269 268
221 229 233 236 240 244 245 246 247 248 249 250 249 249 248 247 248 248 251 254 253 255 256 255 256 257 257 260 262 264 266 269 269 268 268 272 279 283 282 282 283 286 288 289 290 292 291 290 290 290 288 285 282 277 270 267 266 260 252 253 257 251 243 244 251 259 267 275 280 282 283 284 284 283 283 281 277 274 273 272 271 270 269 269 268 267
220 225 231 234 236 243 246 246 248 250 253 254 253 252 251 249 248 245 245 247 247 249 253 254 254 257 259 259 262 266 268 268 268 268 270 274 279 282 283 283 284 286 288 289 290 290 291 291 288 284 282 280 279 278 274 270 266 256 246 246 253 252 245 244 249 257 264 270 275 278 280 282 283 282 283 282 278 276 274 273 271 271 270 270 268 267
217 222 229 230 232 245 249 249 251 252 253 253 251 251 251 249 249 250 249 251 251 250 252 254 256 260 263 263 264 266 266 267 267 268 271 274 277 279 282 283 284 286 287 288 288 288 289 289 283 276 275 275 274 275 277 276 270 260 249 244 245 246 243 243 246 251 258 265 270 274 277 280 282 283 283 282 279 276 275 274 272 272 271 271 271 269
216 221 228 229 232 248 253 254 254 250 248 252 251 252 254 254 256 258 259 258 258 256 255 258 262 265 266 266 268 268 268 268 269 269 272 275 276 276 277 279 282 285 286 286 286 287 288 286 278 269 270 275 274 273 275 278 276 267 256 247 242 240 239 240 243 246 251 257 264 269 272 275 279 283 283 282 279 276 275 275 274 273 272 271 271 271
223 221 226 230 231 245 255 257 249 241 249 255 257 259 262 265 266 266 265 264 261 261 262 263 266 268 268 269 272 273 274 274 275 275 277 278 277 274 274 276 279 282 284 285 285 286 287 286 279 270 268 273 276 274 274 277 279 274 264 253 245 241 240 241 243 246 249 252 256 261 265 270 274 278 281 281 279 277 275 275 275 274 274 273 272 271
225 220 223 228 231 243 252 242 228 254 260 261 264 265 264 264 265 263 264 266 267 268 270 271 272 274 274 274 274 274 276 277 278 279 278 278 277 275 276 277 277 279 282 283 283 285 286 286 281 273 270 271 274 274 274 277 280 279 273 263 253 247 246 247 248 251 253 253 253 254 257 262 267 269 273 277 279 277 276 276 275 274 274 274 273 270
228 224 225 228 232 240 246 248 254 270 272 267 263 260 260 262 264 263 265 271 275 276 276 276 275 274 274 273 274 275 277 279 279 278 276 276 276 276 277 278 277 279 280 279 280 282 284 283 278 274 271 270 271 271 271 273 278 280 279 273 262 253 249 251 253 254 256 258 256 254 254 256 258 261 265 269 274 276 275 273 272 271 271 272 271 270
232 232 232 231 235 241 250 263 266 263 267 263 257 257 262 268 272 272 267 270 275 277 275 275 274 273 274 274 274 276 278 277 276 275 273 274 277 279 280 280 279 279 280 280 279 279 279 279 277 275 272 270 270 270 269 271 275 279 280 278 271 261 252 251 252 253 254 257 257 256 255 256 257 260 263 265 267 271 273 272 269 269 269 269 269 268
233 235 236 235 239 240 239 247 248 237 255 260 260 264 271 274 278 275 263 265 274 276 275 274 273 274 275 275 276 277 274 272 273 272 273 277 281 282 282 281 281 281 282 282 282 279 277 278 279 279 276 272 270 270 270 270 273 276 279 279 277 271 261 254 253 253 254 256 256 255 256 257 258 260 263 264 264 266 269 269 266 266 266 266 266 266
227 229 230 229 234 236 234 239 244 246 257 263 267 270 273 276 279 264 240 263 276 277 276 275 275 277 278 277 276 274 269 269 272 274 274 277 279 279 279 280 282 282 282 282 282 281 279 279 280 280 278 273 269 267 268 269 270 273 277 278 279 277 270 261 257 256 257 257 258 258 257 257 257 258 262 264 263 263 265 263 261 262 262 262 263 263
222 225 225 227 232 234 233 237 243 249 258 266 270 270 269 272 267 238 242 270 279 278 277 278 279 281 280 275 270 268 267 269 272 272 272 272 271 272 274 277 279 280 280 281 281 281 282 281 281 278 274 271 268 266 267 268 270 271 273 275 276 275 273 268 264 261 260 259 259 259 258 258 258 258 260 263 263 263 264 261 257 257 258 258 260 261
216 218 220 226 230 231 233 237 241 251 260 264 265 265 265 262 253 251 265 280 283 280 280 278 276 276 274 271 269 268 269 270 268 266 267 268 267 268 270 273 274 274 275 277 277 277 277 277 274 270 267 266 266 266 267 268 270 271 271 272 273 273 273 273 270 267 265 263 261 261 260 260 261 261 261 263 263 263 263 261 257 256 256 255 256 258
229 218 213 223 229 228 231 232 231 250 263 266 261 257 257 257 260 267 276 282 282 282 281 275 270 268 267 268 269 270 270 268 264 262 264 265 265 266 267 268 268 267 267 268 269 270 271 269 266 264 265 266 268 269 269 268 269 270 270 271 272 273 274 275 274 272 270 268 267 267 266 265 265 264 264 264 263 263 262 261 259 257 257 255 253 254
240 228 221 228 229 220 217 224 239 259 270 272 263 257 260 265 272 277 277 275 277 279 273 264 258 257 257 259 261 263 263 260 256 256 257 258 259 261 260 260 261 261 260 260 261 263 265 265 264 264 267 270 273 274 274 272 271 270 270 270 271 273 275 276 276 275 273 272 272 272 272 271 270 268 266 264 263 262 262 261 259 257 257 257 255 253
244 244 240 240 239 234 233 246 264 273 272 268 264 262 263 265 270 273 273 274 274 269 260 250 246 247 250 252 252 253 254 254 253 251 248 246 248 250 251 252 255 257 258 260 262 265 266 267 267 267 268 271 274 275 276 276 275 273 273 273 272 273 275 277 277 276 275 274 275 275 276 275 274 272 270 267 264 262 261 260 258 256 255 257 257 255
249 250 247 245 246 249 255 262 265 264 263 263 263 260 256 255 262 268 274 276 271 264 255 248 251 261 267 265 264 264 263 265 266 264 259 255 253 255 257 261 264 268 271 273 274 274 275 275 274 273 273 276 277 278 278 278 277 277 277 277 276 274 276 278 279 279 278 277 276 276 277 278 277 276 274 271 267 264 261 259 258 255 254 254 256 257
246 242 240 242 241 243 252 258 257 255 256 258 259 258 258 261 265 267 271 273 269 263 260 263 273 283 286 282 279 276 273 275 278 279 279 276 274 274 276 279 281 282 282 282 282 281 280 281 281 280 280 280 281 282 283 282 281 279 279 280 280 278 277 279 281 281 281 280 279 278 277 277 277 277 276 273 269 264 261 259 257 255 253 253 255 256
242 239 238 241 242 243 250 256 257 257 257 256 257 258 259 261 262 262 263 266 266 268 274 279 273 267 268 274 278 276 274 274 275 278 280 279 276 274 274 276 279 278 277 277 278 278 279 279 281 283 283 283 284 285 285 286 286 284 282 282 283 282 279 279 281 282 283 283 283 281 279 277 276 275 275 274 271 265 260 256 255 253 251 250 251 253
241 240 241 243 246 249 251 252 252 254 257 256 255 255 256 259 262 262 261 263 267 271 276 271 263 259 261 268 273 273 271 268 268 271 273 271 269 268 268 269 271 271 271 272 273 274 276 278 282 284 286 287 288 288 288 288 289 289 287 286 286 285 283 281 280 281 283 284 283 282 281 278 275 272 271 272 272 270 263 257 253 251 249 248 248 250
239 241 243 243 245 248 252 253 253 254 257 258 259 261 263 265 267 267 267 267 267 267 268 267 265 264 264 266 271 271 268 266 266 267 268 266 264 262 263 265 266 267 270 274 274 274 276 280 283 287 289 292 294 294 293 292 292 292 291 290 288 287 287 286 282 279 280 283 283 282 281 279 276 273 269 267 268 270 268 261 255 251 249 248 248 249
239 242 244 244 247 252 256 259 260 259 260 262 263 263 263 264 264 264 265 264 264 266 269 270 270 267 264 264 266 269 268 266 264 264 265 265 265 266 266 268 268 269 271 274 275 275 276 278 281 285 288 292 295 297 298 299 297 296 294 294 293 291 290 290 287 281 277 279 283 283 282 280 279 276 272 268 265 266 266 265 260 255 252 251 251 251
Height
3126 3127 3127 3127 3128 3131 3133 3138 3141 3141 3144 3147 3149 3151 3152 3153 3154 3155 3157 3158 3159 3159 3157 3157 3156 3156 3156 3157 3159 3160 3159 3158 3159 3160 3161 3161 3161 3161 3162 3162 3163 3163 3164 3166 3167 3167 3167 3166 3167 3166 3166 3166 3166 3166 3167 3167 3167 3167 3168 3167 3168 3169 3168 3167 3168 3168 3168 3168 3168 3168 3168 3168 3168 3168 3168 3168 3169 3169 3170 3170 3170 3171 3171 3171 3172 3172
3123 3123 3123 3126 3129 3132 3134 3137 3139 3140 3142 3145 3147 3149 3150 3151 3152 3152 3154 3155 3156 3156 3154 3154 3154 3152 3152 3153 3154 3156 3154 3155 3157 3158 3158 3159 3159 3159 3159 3160 3160 3161 3162 3163 3163 3163 3164 3164 3164 3164 3163 3163 3163 3164 3164 3164 3164 3164 3164 3164 3165 3165 3165 3164 3165 3165 3166 3166 3166 3166 3166 3166 3165 3165 3165 3166 3166 3166 3167 3167 3167 3168 3168 3168 3169 3169
3121 3120 3123 3126 3127 3130 3132 3134 3137 3139 3141 3143 3145 3148 3148 3149 3150 3150 3151 3153 3154 3154 3152 3152 3151 3148 3149 3149 3149 3150 3150 3152 3155 3156 3156 3156 3156 3157 3157 3157 3157 3158 3159 3160 3161 3161 3162 3162 3161 3161 3160 3161 3161 3161 3161 3160 3161 3161 3161 3161 3162 3162 3162 3162 3162 3162 3163 3164 3164 3163 3163 3163 3162 3162 3162 3162 3162 3162 3163 3164 3164 3164 3165 3165 3166 3167
3118 3117 3120 3122 3124 3127 3130 3133 3136 3138 3139 3141 3143 3145 3146 3146 3148 3149 3150 3150 3152 3152 3150 3150 3147 3143 3144 3145 3144 3146 3147 3150 3153 3153 3153 3153 3153 3154 3155 3154 3154 3155 3156 3157 3158 3159 3159 3159 3158 3158 3158 3158 3158 3157 3158 3158 3158 3158 3158 3158 3158 3159 3159 3159 3159 3160 3160 3160 3160 3160 3160 3159 3159 3159 3159 3159 3159 3159 3160 3161 3161 3162 3162 3163 3164 3164
3116 3117 3119 3121 3123 3126 3129 3131 3134 3136 3137 3139 3140 3142 3144 3144 3145 3148 3149 3149 3150 3150 3148 3149 3145 3137 3138 3140 3140 3143 3144 3145 3148 3149 3149 3150 3151 3152 3151 3151 3152 3152 3153 3154 3155 3156 3156 3156 3156 3155 3155 3154 3154 3154 3155 3155 3155 3155 3155 3155 3155 3155 3155 3156 3156 3157 3156 3156 3157 3156 3156 3156 3156 3157 3157 3157 3158 3159 3159 3159 3160 3160 3160 3161 3161 3162
3114 3116 3118 3120 3122 3125 3128 3129 3131 3133 3135 3136 3136 3138 3142 3143 3144 3146 3147 3149 3150 3149 3146 3149 3145 3132 3131 3135 3135 3140 3140 3140 3143 3144 3145 3147 3148 3149 3148 3149 3150 3150 3150 3151 3151 3152 3152 3153 3153 3152 3152 3151 3151 3151 3151 3152 3151 3151 3151 3151 3151 3151 3152 3152 3153 3153 3152 3152 3153 3152 3153 3154 3154 3154 3154 3156 3157 3157 3157 3157 3157 3157 3158 3158 3158 3159
3109 3113 3115 3118 3121 3124 3126 3127 3129 3131 3133 3134 3133 3136 3141 3141 3142 3143 3145 3148 3149 3147 3145 3147 3146 3132 3127 3130 3131 3134 3135 3134 3138 3139 3141 3144 3144 3145 3146 3147 3148 3148 3148 3148 3148 3148 3148 3149 3150 3149 3149 3149 3148 3148 3147 3147 3148 3148 3148 3149 3148 3148 3148 3149 3149 3149 3149 3148 3149 3149 3150 3151 3151 3151 3152 3154 3154 3154 3154 3154 3154 3153 3154 3154 3155 3155
3104 3110 3112 3115 3118 3122 3125 3126 3126 3129 3131 3131 3131 3136 3138 3138 3140 3141 3144 3146 3146 3146 3144 3143 3145 3135 3123 3122 3125 3129 3130 3130 3132 3135 3137 3140 3141 3142 3143 3144 3145 3146 3146 3145 3144 3144 3144 3145 3146 3146 3146 3145 3145 3145 3144 3144 3144 3145 3145 3145 3145 3145 3145 3145 3145 3145 3145 3144 3145 3145 3146 3147 3148 3149 3150 3151 3151 3151 3150 3150 3150 3150 3150 3151 3151 3151
3101 3104 3107 3111 3114 3117 3122 3125 3125 3127 3129 3129 3131 3134 3136 3136 3138 3139 3142 3143 3143 3145 3141 3138 3142 3135 3118 3115 3121 3124 3126 3126 3126 3130 3134 3136 3138 3139 3140 3142 3142 3143 3142 3142 3141 3141 3141 3141 3141 3142 3142 3142 3142 3141 3141 3141 3141 3141 3142 3142 3142 3142 3142 3142 3141 3141 3141 3141 3141 3142 3142 3143 3144 3145 3147 3147 3147 3147 3147 3147 3147 3147 3147 3147 3148 3148
3099 3102 3106 3110 3111 3113 3119 3124 3125 3125 3126 3128 3130 3132 3134 3135 3135 3137 3139 3140 3143 3141 3134 3132 3138 3132 3116 3112 3117 3119 3121 3123 3123 3126 3130 3132 3135 3136 3137 3138 3138 3139 3139 3138 3138 3137 3137 3137 3137 3137 3138 3138 3138 3138 3137 3137 3137 3137 3137 3138 3138 3139 3139 3138 3138 3137 3137 3137 3137 3137 3138 3138 3140 3141 3142 3142 3143 3143 3143 3143 3144 3144 3144 3144 3144 3145
3098 3103 3106 3107 3107 3111 3116 3121 3123 3123 3125 3127 3130 3131 3132 3133 3132 3134 3136 3138 3140 3134 3125 3126 3132 3133 3119 3109 3112 3114 3115 3120 3122 3123 3126 3129 3131 3132 3133 3134 3134 3135 3134 3134 3134 3134 3134 3133 3133 3133 3134 3135 3134 3133 3133 3133 3133 3132 3132 3132 3133 3134 3134 3134 3134 3134 3134 3134 3133 3134 3134 3134 3136 3137 3137 3137 3138 3139 3139 3140 3140 3141 3141 3141 3141 3141
3098 3101 3102 3102 3104 3108 3112 3116 3118 3120 3122 3125 3129 3131 3131 3130 3130 3131 3132 3135 3134 3126 3120 3122 3127 3133 3122 3106 3107 3111 3112 3118 3122 3122 3124 3126 3127 3128 3129 3130 3131 3131 3130 3130 3130 3131 3130 3130 3130 3130 3130 3130 3129 3129 3129 3129 3129 3128 3127 3128 3128 3129 3130 3129 3130 3130 3130 3130 3130 3130 3130 3131 3132 3132 3132 3133 3134 3134 3135 3136 3137 3136 3137 3137 3137 3137
3095 3097 3098 3100 3102 3104 3107 3110 3114 3117 3119 3123 3126 3129 3129 3127 3126 3126 3126 3126 3125 3120 3118 3120 3123 3127 3116 3102 3104 3108 3109 3115 3119 3120 3122 3122 3122 3124 3125 3127 3127 3127 3127 3127 3127 3127 3127 3127 3127 3126 3125 3125 3125 3125 3125 3125 3124 3124 3124 3123 3124 3125 3125 3125 3125 3126 3126 3126 3126 3127 3126 3127 3128 3128 3128 3128 3129 3130 3130 3131 3132 3132 3132 3133 3133 3133
3093 3095 3096 3097 3098 3100 3102 3103 3106 3109 3112 3116 3119 3121 3123 3122 3120 3119 3118 3118 3119 3118 3117 3119 3121 3122 3112 3101 3100 3105 3108 3112 3115 3116 3118 3118 3119 3121 3122 3123 3123 3123 3124 3123 3123 3123 3123 3123 3122 3121 3121 3121 3121 3121 3121 3120 3120 3120 3120 3120 3120 3121 3122 3121 3121 3122 3122 3122 3123 3123 3122 3122 3123 3123 3123 3124 3125 3126 3126 3127 3127 3127 3128 3128 3129 3129
3088 3090 3091 3092 3093 3095 3097 3099 3102 3105 3107 3110 3113 3117 3118 3117 3116 3115 3114 3115 3115 3115 3115 3117 3118 3116 3109 3100 3097 3102 3106 3109 3111 3114 3116 3116 3117 3118 3118 3119 3119 3120 3120 3119 3119 3119 3119 3118 3118 3117 3117 3117 3117 3117 3116 3116 3116 3116 3116 3116 3116 3117 3118 3117 3117 3117 3117 3118 3118 3118 3118 3118 3118 3118 3118 3119 3120 3121 3122 3122 3122 3123 3123 3124 3125 3125
3085 3085 3086 3089 3091 3092 3095 3098 3101 3105 3107 3109 3113 3116 3113 3113 3115 3115 3114 3113 3114 3114 3112 3112 3112 3108 3103 3097 3097 3102 3103 3104 3109 3112 3113 3114 3114 3114 3115 3116 3116 3116 3116 3116 3115 3115 3115 3115 3115 3114 3114 3114 3113 3113 3113 3113 3112 3112 3112 3112 3113 3113 3113 3112 3112 3112 3112 3113 3113 3113 3113 3113 3113 3112 3113 3113 3115 3116 3117 3117 3117 3118 3119 3119 3119 3119
3083 3084 3084 3087 3090 3091 3094 3097 3099 3102 3104 3105 3108 3108 3106 3109 3114 3115 3114 3113 3115 3115 3110 3108 3107 3105 3101 3095 3093 3099 3101 3101 3106 3109 3110 3110 3111 3111 3112 3112 3113 3112 3112 3112 3112 3112 3112 3112 3111 3111 3110 3110 3110 3110 3110 3109 3109 3109 3109 3109 3109 3109 3109 3108 3107 3107 3107 3107 3108 3107 3108 3108 3107 3107 3108 3109 3110 3111 3111 3110 3111 3112 3113 3113 3113 3113
3079 3082 3083 3085 3087 3089 3093 3096 3098 3099 3101 3101 3102 3102 3105 3110 3113 3115 3116 3114 3115 3114 3108 3105 3103 3103 3102 3092 3088 3095 3099 3099 3103 3105 3106 3107 3107 3108 3109 3110 3110 3109 3109 3109 3109 3109 3109 3109 3109 3108 3107 3107 3107 3107 3106 3105 3105 3105 3105 3105 3104 3104 3104 3103 3102 3102 3102 3102 3102 3102 3102 3102 3102 3103 3103 3104 3105 3105 3104 3104 3105 3106 3106 3107 3108 3107
3077 3080 3082 3083 3086 3088 3092 3094 3095 3096 3098 3098 3098 3100 3104 3107 3108 3110 3113 3112 3112 3110 3104 3101 3099 3099 3097 3088 3085 3093 3096 3097 3100 3102 3103 3103 3104 3105 3105 3106 3108 3108 3107 3107 3106 3107 3106 3106 3106 3105 3104 3104 3103 3103 3102 3102 3101 3101 3101 3100 3100 3100 3099 3098 3097 3097 3097 3097 3097 3097 3098 3097 3097 3098 3098 3099 3099 3099 3098 3099 3100 3100 3100 3101 3101 3101
3075 3078 3079 3081 3084 3086 3089 3090 3090 3091 3093 3096 3098 3099 3100 3102 3102 3103 3104 3105 3106 3105 3102 3098 3094 3091 3088 3083 3085 3091 3093 3094 3096 3098 3100 3100 3100 3101 3101 3102 3104 3105 3105 3105 3104 3104 3104 3104 3103 3102 3101 3100 3099 3099 3098 3098 3098 3097 3097 3096 3096 3096 3095 3094 3094 3093 3093 3093 3093 3093 3093 3093 3093 3093 3093 3093 3093 3093 3093 3094 3094 3094 3094 3095 3094 3095
3072 3075 3077 3079 3081 3083 3084 3084 3084 3086 3088 3091 3093 3094 3094 3096 3098 3099 3100 3101 3103 3102 3100 3097 3090 3083 3081 3081 3084 3088 3090 3091 3093 3094 3095 3096 3096 3097 3098 3099 3100 3101 3102 3102 3101 3101 3100 3100 3100 3099 3098 3096 3095 3095 3095 3095 3094 3093 3093 3092 3092 3091 3091 3091 3091 3090 3090 3089 3089 3089 3089 3089 3089 3089 3088 3088 3088 3088 3088 3088 3089 3089 3088 3088 3088 3089
3070 3072 3074 3076 3077 3079 3079 3080 3081 3084 3085 3086 3087 3088 3089 3091 3094 3096 3096 3096 3098 3097 3095 3094 3086 3077 3076 3079 3081 3085 3087 3087 3089 3090 3091 3092 3093 3093 3094 3096 3097 3097 3097 3098 3098 3097 3097 3097 3097 3096 3094 3093 3092 3092 3092 3091 3090 3090 3089 3089 3088 3087 3087 3087 3087 3086 3086 3086 3085 3085 3085 3085 3085 3085 3084 3084 3083 3083 3083 3083 3084 3083 3082 3082 3082 3083
3067 3069 3072 3073 3075 3077 3078 3078 3080 3082 3085 3086 3086 3087 3088 3090 3091 3091 3090 3090 3092 3092 3091 3092 3086 3074 3072 3078 3079 3081 3083 3084 3085 3086 3086 3087 3089 3090 3091 3093 3093 3093 3093 3093 3093 3093 3093 3093 3093 3092 3091 3089 3088 3088 3088 3087 3086 3086 3085 3085 3084 3083 3083 3083 3082 3082 3081 3081 3081 3081 3081 3081 3080 3080 3080 3079 3079 3079 3079 3079 3079 3078 3077 3076 3077 3077
3065 3067 3070 3072 3074 3075 3076 3077 3078 3080 3082 3082 3082 3084 3085 3086 3086 3087 3087 3088 3088 3089 3089 3091 3086 3073 3067 3074 3077 3077 3079 3080 3080 3082 3083 3084 3085 3086 3087 3088 3089 3089 3089 3089 3089 3088 3089 3089 3088 3088 3087 3086 3085 3085 3084 3083 3082 3082 3081 3080 3080 3079 3079 3078 3077 3077 3077 3077 3077 3077 3077 3076 3076 3076 3075 3075 3075 3075 3075 3074 3073 3073 3072 3072 3072 3072
3062 3064 3067 3070 3072 3074 3075 3075 3076 3077 3078 3077 3077 3079 3080 3082 3084 3085 3085 3086 3085 3085 3086 3086 3083 3073 3065 3069 3074 3073 3074 3075 3075 3078 3080 3081 3082 3082 3083 3083 3084 3084 3084 3084 3084 3084 3084 3084 3084 3084 3084 3082 3081 3081 3080 3079 3079 3078 3077 3076 3076 3075 3075 3074 3074 3073 3073 3073 3073 3073 3073 3072 3072 3071 3071 3071 3071 3070 3070 3069 3069 3068 3068 3068 3068 3068
3060 3061 3063 3065 3066 3068 3069 3070 3071 3071 3072 3073 3073 3075 3077 3079 3081 3081 3082 3083 3081 3081 3083 3081 3078 3073 3065 3066 3069 3069 3070 3071 3071 3073 3075 3076 3077 3078 3078 3078 3078 3078 3078 3078 3079 3079 3079 3080 3079 3079 3079 3078 3077 3077 3076 3076 3075 3074 3073 3073 3072 3072 3072 3071 3071 3070 3070 3070 3069 3069 3069 3069 3068 3067 3067 3067 3067 3066 3066 3065 3064 3064 3064 3064 3064 3064
3058 3058 3059 3060 3061 3062 3063 3064 3066 3067 3068 3070 3071 3072 3075 3075 3077 3079 3078 3077 3076 3078 3077 3076 3077 3074 3066 3061 3064 3066 3069 3070 3068 3069 3069 3070 3072 3073 3073 3073 3072 3072 3073 3073 3074 3075 3074 3075 3075 3075 3074 3074 3073 3072 3071 3071 3071 3070 3070 3069 3069 3069 3069 3068 3068 3067 3067 3066 3066 3066 3066 3065 3064 3064 3063 3063 3062 3062 3062 3061 3061 3060 3060 3060 3060 3059
3055 3055 3057 3058 3059 3060 3061 3063 3065 3066 3068 3069 3070 3071 3072 3073 3075 3075 3073 3072 3075 3074 3071 3072 3076 3075 3065 3058 3058 3062 3066 3067 3066 3065 3065 3064 3065 3066 3066 3067 3067 3067 3068 3068 3069 3070 3070 3071 3071 3070 3069 3069 3069 3068 3066 3066 3066 3066 3065 3065 3065 3065 3065 3065 3065 3064 3064 3063 3063 3063 3062 3061 3061 3060 3059 3059 3058 3058 3058 3057 3057 3056 3056 3056 3055 3055
3052 3052 3054 3056 3056 3058 3060 3062 3063 3065 3066 3068 3068 3069 3070 3071 3071 3071 3070 3071 3073 3071 3068 3071 3073 3071 3065 3058 3054 3058 3063 3063 3061 3060 3059 3059 3059 3060 3061 3061 3061 3062 3063 3063 3063 3065 3066 3066 3066 3065 3065 3064 3064 3064 3062 3061 3061 3061 3060 3060 3060 3061 3061 3061 3061 3060 3060 3059 3059 3059 3058 3057 3057 3056 3055 3055 3054 3054 3053 3053 3053 3052 3052 3051 3051 3051
3049 3050 3052 3054 3054 3055 3056 3058 3060 3062 3063 3064 3064 3065 3067 3067 3067 3068 3068 3068 3069 3066 3066 3069 3067 3063 3062 3059 3053 3053 3057 3058 3057 3055 3054 3054 3054 3055 3056 3055 3055 3056 3057 3057 3057 3059 3060 3061 3061 3061 3060 3060 3059 3059 3058 3058 3057 3056 3055 3055 3056 3056 3056 3056 3056 3056 3055 3055 3055 3055 3054 3053 3053 3052 3052 3051 3050 3050 3049 3048 3048 3048 3047 3047 3047 3047
3047 3049 3050 3052 3052 3052 3053 3055 3056 3057 3058 3059 3059 3061 3063 3064 3064 3064 3064 3063 3063 3060 3060 3062 3060 3056 3059 3060 3054 3049 3051 3054 3053 3050 3050 3050 3050 3050 3050 3050 3050 3051 3052 3051 3051 3053 3055 3055 3056 3056 3055 3055 3054 3054 3054 3053 3053 3052 3050 3050 3050 3050 3051 3051 3051 3051 3051 3051 3051 3050 3049 3048 3048 3048 3048 3047 3046 3045 3044 3044 3043 3043 3043 3043 3043 3043
3045 3047 3047 3049 3050 3048 3049 3052 3052 3053 3055 3054 3054 3056 3058 3058 3057 3056 3056 3056 3056 3055 3056 3057 3054 3052 3056 3059 3055 3049 3046 3047 3048 3046 3045 3046 3047 3046 3044 3043 3045 3046 3046 3046 3046 3048 3050 3050 3051 3051 3050 3049 3049 3048 3048 3048 3048 3047 3046 3044 3044 3044 3045 3046 3046 3046 3046 3046 3046 3045 3044 3043 3043 3043 3043 3042 3041 3041 3040 3039 3038 3038 3038 3038 3038 3038
3042 3044 3044 3046 3047 3045 3046 3047 3049 3051 3050 3047 3047 3050 3050 3049 3049 3049 3049 3050 3052 3053 3053 3050 3048 3048 3052 3055 3054 3049 3042 3038 3039 3040 3042 3043 3044 3042 3039 3038 3039 3039 3040 3040 3039 3041 3044 3046 3046 3045 3044 3043 3043 3043 3043 3043 3043 3043 3042 3039 3037 3038 3038 3038 3039 3039 3039 3040 3040 3040 3039 3038 3037 3037 3037 3037 3037 3036 3035 3034 3033 3033 3033 3032 3032 3032
3039 3040 3042 3043 3044 3043 3043 3044 3046 3047 3043 3040 3042 3044 3043 3043 3045 3045 3044 3045 3047 3047 3045 3043 3043 3045 3047 3047 3047 3044 3038 3034 3033 3034 3038 3041 3041 3039 3036 3034 3033 3032 3033 3033 3032 3034 3038 3041 3041 3039 3037 3037 3037 3037 3038 3038 3037 3038 3037 3035 3033 3032 3031 3030 3031 3031 3032 3033 3034 3034 3034 3033 3032 3032 3031 3031 3031 3030 3030 3029 3028 3028 3027 3027 3027 3026
3035 3038 3039 3041 3042 3041 3040 3042 3043 3040 3036 3036 3038 3038 3039 3040 3041 3040 3037 3036 3038 3038 3038 3038 3039 3040 3042 3041 3040 3037 3034 3031 3029 3029 3031 3034 3035 3034 3031 3029 3028 3028 3027 3027 3027 3028 3031 3033 3034 3032 3031 3031 3031 3031 3032 3031 3030 3030 3031 3032 3030 3029 3027 3025 3025 3025 3025 3026 3026 3027 3027 3027 3027 3027 3026 3025 3025 3025 3024 3024 3023 3023 3022 3022 3022 3022
3032 3034 3036 3037 3039 3038 3037 3038 3038 3033 3030 3032 3033 3033 3034 3035 3034 3033 3029 3027 3031 3033 3033 3033 3034 3035 3035 3034 3033 3031 3029 3027 3025 3022 3022 3024 3026 3026 3024 3023 3025 3024 3023 3022 3021 3021 3023 3024 3024 3024 3024 3025 3025 3025 3025 3024 3024 3024 3026 3027 3026 3025 3024 3022 3021 3021 3021 3020 3020 3020 3020 3020 3020 3020 3020 3019 3018 3018 3019 3019 3018 3018 3018 3017 3017 3017
3029 3031 3033 3035 3035 3034 3033 3032 3033 3032 3029 3026 3026 3027 3028 3027 3028 3029 3025 3022 3025 3028 3028 3027 3027 3027 3027 3027 3026 3026 3026 3024 3019 3014 3014 3016 3017 3019 3019 3019 3019 3018 3016 3016 3016 3016 3016 3016 3015 3016 3016 3017 3018 3018 3018 3018 3018 3018 3019 3020 3019 3018 3017 3016 3016 3016 3016 3015 3015 3014 3014 3013 3012 3012 3013 3013 3013 3013 3014 3014 3013 3013 3013 3012 3012 3012
3025 3027 3030 3031 3032 3032 3032 3030 3032 3032 3026 3018 3017 3021 3024 3024 3026 3027 3023 3018 3020 3022 3021 3020 3019 3019 3020 3021 3021 3022 3023 3020 3013 3010 3009 3008 3010 3014 3014 3012 3012 3011 3010 3010 3010 3010 3010 3009 3009 3009 3009 3009 3010 3010 3011 3012 3012 3012 3013 3013 3011 3010 3010 3009 3009 3009 3008 3008 3008 3008 3008 3007 3006 3005 3006 3006 3007 3007 3008 3009 3008 3007 3007 3007 3007 3007
3022 3024 3027 3029 3029 3030 3030 3028 3027 3025 3019 3013 3012 3017 3021 3021 3022 3023 3020 3014 3014 3015 3014 3013 3013 3014 3015 3015 3016 3017 3017 3012 3007 3008 3006 3002 3005 3009 3006 3004 3005 3005 3004 3004 3004 3004 3005 3004 3004 3004 3004 3004 3004 3004 3005 3006 3007 3007 3007 3006 3004 3003 3004 3003 3001 3001 3001 3001 3000 3000 3001 3001 3000 3000 2999 3000 3001 3001 3002 3003 3003 3002 3002 3001 3001 3002
3017 3020 3023 3024 3024 3023 3024 3023 3021 3017 3013 3011 3012 3014 3015 3015 3017 3018 3014 3009 3009 3009 3008 3008 3009 3009 3010 3010 3010 3010 3009 3005 3004 3005 3003 3000 3002 3003 2998 2997 2999 2999 2999 2999 2999 2999 2999 2999 3000 3000 3000 3000 2999 2999 2999 2999 3000 3001 3001 2999 2998 2997 2996 2995 2994 2994 2994 2994 2994 2994 2994 2993 2993 2993 2993 2994 2995 2995 2996 2997 2997 2997 2996 2996 2996 2996
3012 3014 3016 3017 3017 3019 3019 3019 3016 3011 3008 3009 3010 3010 3010 3011 3013 3010 3005 3003 3005 3003 3001 3002 3004 3005 3005 3004 3003 3003 3002 3001 3000 2999 2997 2996 2997 2997 2994 2993 2993 2992 2993 2994 2994 2994 2995 2995 2995 2996 2996 2995 2994 2993 2993 2993 2994 2994 2993 2993 2991 2989 2987 2986 2987 2988 2987 2987 2987 2987 2986 2986 2986 2986 2986 2987 2988 2988 2989 2990 2991 2991 2991 2990 2990 2990
3006 3009 3011 3012 3013 3013 3012 3013 3012 3006 3003 3004 3005 3004 3005 3006 3004 3000 2999 3001 3002 2999 2996 2997 2998 3000 3000 2998 2998 2998 2997 2996 2995 2993 2992 2992 2992 2991 2990 2989 2988 2988 2988 2989 2989 2989 2990 2991 2991 2990 2990 2989 2988 2987 2987 2987 2987 2987 2986 2985 2984 2982 2981 2981 2981 2981 2981 2980 2980 2979 2979 2979 2979 2980 2980 2980 2981 2981 2983 2984 2984 2985 2985 2984 2983 2983
3000 3003 3004 3004 3004 3006 3007 3010 3008 3000 2995 2998 2999 2998 2998 2998 2996 2996 2998 2999 2998 2995 2994 2993 2993 2994 2993 2993 2993 2992 2992 2991 2989 2988 2987 2987 2987 2986 2986 2985 2985 2985 2985 2986 2986 2985 2986 2986 2986 2986 2985 2984 2983 2982 2982 2982 2981 2981 2980 2979 2978 2977 2977 2976 2976 2975 2975 2974 2973 2972 2972 2973 2973 2973 2974 2974 2974 2974 2975 2977 2978 2978 2979 2978 2977 2977
2993 2995 2995 2993 2995 2998 2999 2997 2993 2989 2989 2993 2993 2991 2992 2993 2994 2995 2995 2994 2993 2992 2989 2987 2987 2987 2987 2987 2987 2986 2986 2985 2984 2983 2983 2983 2983 2983 2982 2982 2982 2982 2982 2983 2982 2982 2982 2982 2981 2982 2981 2980 2979 2978 2978 2977 2976 2976 2975 2973 2973 2972 2972 2971 2971 2970 2969 2968 2967 2966 2966 2966 2966 2966 2967 2967 2967 2967 2968 2970 2971 2972 2972 2971 2970 2970
2983 2984 2986 2987 2987 2988 2987 2984 2984 2985 2987 2989 2988 2988 2990 2991 2992 2991 2990 2990 2989 2987 2985 2983 2982 2982 2982 2983 2983 2982 2981 2981 2980 2980 2980 2980 2980 2979 2978 2978 2978 2978 2978 2978 2978 2977 2977 2977 2976 2977 2976 2975 2974 2974 2974 2973 2972 2971 2970 2969 2968 2967 2966 2965 2965 2965 2964 2963 2962 2961 2960 2959 2959 2960 2960 2960 2960 2960 2961 2962 2963 2965 2965 2965 2964 2963
2979 2980 2982 2983 2984 2983 2981 2980 2981 2982 2983 2984 2986 2987 2988 2988 2988 2987 2986 2986 2986 2983 2981 2979 2978 2978 2979 2980 2979 2979 2978 2977 2977 2977 2977 2977 2976 2976 2975 2974 2974 2974 2973 2973 2974 2973 2973 2972 2972 2971 2971 2970 2969 2969 2968 2967 2966 2965 2965 2964 2963 2962 2960 2960 2959 2958 2958 2957 2956 2955 2954 2954 2953 2953 2953 2953 2953 2953 2954 2955 2956 2957 2958 2957 2957 2957
2977 2978 2979 2979 2980 2980 2976 2974 2976 2978 2980 2982 2983 2983 2984 2985 2985 2984 2983 2983 2982 2980 2977 2977 2976 2976 2976 2976 2976 2976 2975 2974 2974 2974 2973 2973 2972 2972 2972 2971 2970 2969 2969 2969 2969 2969 2968 2968 2967 2966 2966 2965 2964 2964 2963 2962 2961 2960 2959 2958 2957 2956 2955 2954 2953 2952 2952 2951 2950 2950 2949 2948 2947 2947 2947 2947 2946 2946 2947 2947 2948 2949 2950 2950 2951 2951
2973 2975 2975 2974 2974 2973 2971 2970 2973 2976 2977 2979 2980 2980 2981 2981 2980 2979 2978 2978 2977 2975 2974 2975 2975 2974 2973 2973 2973 2972 2972 2971 2970 2970 2970 2969 2969 2969 2969 2968 2967 2967 2966 2966 2966 2965 2964 2964 2963 2962 2961 2961 2960 2959 2958 2957 2956 2955 2953 2952 2950 2949 2949 2949 2947 2946 2946 2945 2945 2944 2943 2942 2941 2941 2940 2940 2940 2939 2939 2939 2940 2941 2942 2943 2944 2943
2969 2970 2970 2969 2969 2967 2967 2969 2971 2973 2974 2976 2977 2977 2978 2977 2976 2974 2974 2973 2973 2971 2970 2971 2971 2971 2971 2970 2970 2968 2968 2968 2967 2966 2966 2966 2966 2966 2966 2966 2965 2964 2964 2963 2963 2961 2960 2959 2958 2957 2956 2956 2954 2954 2953 2952 2951 2950 2948 2947 2945 2944 2944 2943 2942 2941 2940 2939 2938 2938 2937 2936 2935 2934 2934 2933 2933 2932 2932 2932 2932 2933 2934 2935 2935 2935
2963 2963 2963 2965 2965 2963 2964 2966 2969 2971 2972 2973 2975 2975 2974 2973 2972 2971 2970 2969 2969 2968 2967 2967 2967 2967 2967 2966 2966 2964 2964 2964 2964 2963 2962 2962 2963 2963 2962 2962 2961 2961 2960 2959 2958 2957 2956 2955 2953 2952 2951 2950 2949 2948 2947 2947 2946 2944 2943 2942 2940 2939 2938 2937 2937 2936 2935 2934 2933 2931 2930 2929 2928 2928 2927 2927 2926 2926 2926 2925 2925 2925 2926 2926 2927 2928
2958 2958 2960 2962 2962 2961 2963 2964 2966 2968 2968 2970 2971 2971 2970 2969 2968 2967 2966 2966 2965 2964 2963 2963 2963 2963 2963 2962 2961 2960 2959 2960 2960 2959 2958 2958 2958 2958 2958 2957 2956 2956 2956 2955 2954 2953 2952 2950 2949 2948 2946 2946 2945 2943 2942 2942 2940 2939 2938 2936 2935 2934 2933 2932 2931 2930 2930 2929 2927 2926 2924 2923 2922 2921 2920 2920 2919 2919 2919 2919 2919 2919 2919 2919 2919 2920